Flight Track Log - Related Links

Times and Time Zones

All times are in EDT time to prevent confusion due to time zone crossing. See the RPA3228 flight status page for this flight to view local times or setup timezone preferences in your user account.

Time Position Orientation Groundspeed Altitude Reporting Facility
EDT Latitude Longitude Course Direction KTS MPH feet Rate Location/Type
Fri 10:37:54 AM 38.7667 -77.0667 229° Southwest 253 291 4,400  Level Potomac TRACON
Fri 10:38:00 AM 39.0967 -77.1650 339° North  Level FlightAware Approximate
Fri 10:38:54 AM 38.7500 -77.1500 256° West 277 319 7,000  Level Potomac TRACON
Fri 10:39:00 AM 39.1810 -77.2149 330° Northwest  Level FlightAware Approximate
Fri 10:39:55 AM 38.8000 -77.2333 308° West 285 328 10,000  Level Potomac TRACON
Fri 10:40:00 AM 39.2703 -77.2538 337° Northwest  Level FlightAware Approximate
Fri 10:40:55 AM 38.8500 -77.3333 303° West 319 367 12,200  Level Potomac TRACON
Fri 10:41:00 AM 39.3572 -77.3021 337° Northwest  Level FlightAware Approximate
Fri 10:41:56 AM 38.9333 -77.4000 328° Northwest 295 339 14,800  Level Potomac TRACON
Fri 10:42:00 AM 39.4409 -77.3538 339° North  Level FlightAware Approximate
Fri 10:42:56 AM 38.9833 -77.4333 333° Northwest 356 410 15,000  Level Potomac TRACON
Fri 10:43:56 AM 39.1333 -77.4333 360° North 392 451 17,000 1,114 Climbing Potomac TRACON
Fri 10:45:43 AM 39.3369 -77.4403 358° North 400 460 18,100 1,078 Climbing Washington Center
Fri 10:46:43 AM 39.4494 -77.4461 358° North 400 460 20,000 1,884 Climbing Washington Center
Fri 10:47:44 AM 39.5661 -77.4517 358° North 405 466 21,900 1,216 Climbing Washington Center
Fri 10:49:11 AM 39.7425 -77.4561 359° North 409 471 23,000 689 Climbing New York Center
Fri 10:50:12 AM 39.8656 -77.4569 360° North 434 499 23,600 966 Climbing New York Center
Fri 10:51:09 AM 39.9869 -77.4878 349° North 434 499 24,900 1,200 Climbing New York Center
Fri 10:52:12 AM 40.1072 -77.5372 343° North 445 512 26,000 485 Climbing New York Center
Fri 10:53:25 AM 40.2561 -77.5925 344° North 455 524 26,000  Level New York Center
Fri 10:54:22 AM 40.3783 -77.6400 344° North 455 524 26,000  Level New York Center
Fri 10:56:32 AM 40.6489 -77.7450 344° North 464 534 26,000  Level Cleveland Center
Fri 10:57:32 AM 40.7711 -77.7919 344° North 464 534 26,000  Level Cleveland Center
Fri 10:58:32 AM 40.8825 -77.8339 344° North 464 534 26,000  Level Cleveland Center
Fri 10:59:32 AM 41.0089 -77.8808 344° North 459 528 26,000  Level Cleveland Center
Fri 11:00:32 AM 41.1308 -77.9283 344° North 459 528 26,000  Level Cleveland Center
Fri 11:01:32 AM 41.2550 -77.9783 343° North 459 528 26,000  Level Cleveland Center
Fri 11:02:32 AM 41.3789 -78.0233 345° North 459 528 26,000  Level Cleveland Center
Fri 11:03:32 AM 41.5011 -78.0739 343° North 459 528 26,000  Level Cleveland Center
Fri 11:04:32 AM 41.6250 -78.1219 344° North 459 528 26,000 -550 Level Cleveland Center
Fri 11:05:32 AM 41.7492 -78.1700 344° North 459 528 24,900 -1,950 Descending Cleveland Center
Fri 11:06:32 AM 41.8794 -78.2239 343° North 459 528 22,100 -2,550 Descending Cleveland Center
Fri 11:07:32 AM 41.9931 -78.2672 344° North 447 514 19,800 -2,200 Descending Cleveland Center
Fri 11:08:32 AM 42.1044 -78.3133 343° North 426 490 17,700 -1,950 Descending Cleveland Center
Fri 11:09:32 AM 42.1989 -78.3522 343° North 412 474 15,900 -1,950 Descending Cleveland Center
Fri 11:10:32 AM 42.3019 -78.3906 345° North 392 451 13,800 -2,450 Descending Cleveland Center
Fri 11:11:32 AM 42.3983 -78.4294 343° North 380 437 11,000 -1,400 Descending Cleveland Center
Fri 11:12:32 AM 42.4931 -78.4742 341° North 368 423 11,000  Level Cleveland Center
Fri 11:13:32 AM 42.5731 -78.5164 339° North 340 391 11,000 -150 Level Cleveland Center
Fri 11:14:32 AM 42.6628 -78.5219 357° North 318 366 10,700 -900 Descending Cleveland Center
Fri 11:15:32 AM 42.7503 -78.5192 North 312 359 9,200 -1,900 Descending Cleveland Center
Fri 11:16:32 AM 42.8375 -78.5078 North 294 338 6,900 -2,650 Descending Cleveland Center
Fri 11:17:32 AM 42.9131 -78.5336 346° North 281 323 3,900 -2,300 Descending Cleveland Center
Fri 11:18:32 AM 42.9783 -78.5769 334° Northwest 270 311 2,300 -1,600 Descending Cleveland Center

Login

Don't have an account? Register now (free) for customized features, flight alerts, and more!